AFR654 LUKK-LBSF

Flight info

Callsign AFR654
Flight time 1h 5m
Altitude 36000
Route POGAV DCT BCU DCT GOL
Aircraft A320/M-SDE3FGHIRWY/LB1

Departure

Time 2026-05-04 18:54
Airport Chişinău International Airport (LUKK)

Arrival

Time 2026-05-04 19:59
Airport Sofia Airport (LBSF)
Time Latitude Longitude Altitude Speed Heading
2026-05-04 18:13 46.93395 28.93335 336 ft 0 kts
2026-05-04 18:42 46.93409 28.93339 337 ft 3 kts 13°
2026-05-04 18:42 46.93420 28.93350 339 ft 1 kts 38°
2026-05-04 18:42 46.93427 28.93416 337 ft 9 kts 92°
2026-05-04 18:43 46.93418 28.93506 344 ft 9 kts 97°
2026-05-04 18:43 46.93411 28.93607 350 ft 7 kts 95°
2026-05-04 18:43 46.93408 28.93617 350 ft 1 kts 124°
2026-05-04 18:43 46.93393 28.93617 356 ft 4 kts 186°
2026-05-04 18:44 46.93342 28.93593 347 ft 11 kts 204°
2026-05-04 18:44 46.93324 28.93566 347 ft 13 kts 244°
2026-05-04 18:44 46.93224 28.93503 349 ft 0 kts 185°
2026-05-04 18:44 46.93222 28.93502 349 ft 0 kts 185°
2026-05-04 18:45 46.93202 28.93487 346 ft 7 kts 220°
2026-05-04 18:45 46.93165 28.93404 350 ft 14 kts 260°
2026-05-04 18:45 46.93173 28.93215 337 ft 23 kts 276°
2026-05-04 18:45 46.93190 28.92994 327 ft 23 kts 277°
2026-05-04 18:46 46.93211 28.92746 317 ft 25 kts 277°
2026-05-04 18:46 46.93231 28.92482 305 ft 21 kts 277°
2026-05-04 18:46 46.93251 28.92239 297 ft 25 kts 277°
2026-05-04 18:46 46.93261 28.92097 294 ft 19 kts 268°
2026-05-04 18:47 46.93170 28.92011 296 ft 16 kts 194°
2026-05-04 18:47 46.93090 28.91991 310 ft 5 kts 183°
2026-05-04 18:47 46.93084 28.91990 311 ft 1 kts 182°
2026-05-04 18:47 46.93037 28.91991 321 ft 10 kts 179°
2026-05-04 18:48 46.92983 28.91992 337 ft 6 kts 178°
2026-05-04 18:48 46.92938 28.91995 359 ft 6 kts 177°
2026-05-04 18:48 46.92912 28.91997 363 ft 3 kts 178°
2026-05-04 18:48 46.92894 28.91997 365 ft 1 kts 178°
2026-05-04 18:51 46.92897 28.91997 363 ft 2 kts 178°
2026-05-04 18:51 46.92862 28.91998 370 ft 14 kts 179°
2026-05-04 18:51 46.92768 28.92020 375 ft 16 kts 129°
2026-05-04 18:51 46.92761 28.92082 374 ft 1 kts 90°
2026-05-04 18:52 46.92761 28.92087 373 ft 0 kts 90°
2026-05-04 18:53 46.92762 28.92102 373 ft 8 kts 89°
2026-05-04 18:53 46.92770 28.92563 362 ft 84 kts 88°
2026-05-04 18:53 46.92793 28.93748 331 ft 146 kts 88°
2026-05-04 18:53 46.92815 28.95420 720 ft 162 kts 90°
2026-05-04 18:54 46.92804 28.97022 1454 ft 160 kts 91°
2026-05-04 18:54 46.92749 28.98670 2174 ft 162 kts 93°
2026-05-04 18:54 46.92619 29.00294 2851 ft 160 kts 96°
2026-05-04 18:54 46.92227 29.01871 3291 ft 181 kts 128°
2026-05-04 18:55 46.91033 29.02744 3570 ft 213 kts 174°
2026-05-04 18:55 46.88533 29.00041 4190 ft 265 kts 252°
2026-05-04 18:55 46.88115 28.97342 4755 ft 278 kts 265°
2026-05-04 18:56 46.87926 28.94498 5560 ft 284 kts 268°
2026-05-04 18:56 46.87763 28.91590 6388 ft 290 kts 268°
2026-05-04 18:56 46.87484 28.88643 7201 ft 297 kts 261°
2026-05-04 18:56 46.87025 28.85681 8044 ft 300 kts 261°
2026-05-04 18:57 46.86531 28.82696 8882 ft 304 kts 261°
2026-05-04 18:57 46.86020 28.79678 9720 ft 308 kts 261°
2026-05-04 18:57 46.85498 28.76618 10390 ft 317 kts 261°
2026-05-04 18:57 46.84952 28.73375 10636 ft 340 kts 261°
2026-05-04 18:58 46.84374 28.69938 11101 ft 353 kts 260°
2026-05-04 18:58 46.83776 28.66426 11795 ft 359 kts 260°
2026-05-04 18:58 46.83169 28.62866 12514 ft 363 kts 260°
2026-05-04 18:58 46.82556 28.59257 13223 ft 368 kts 259°
2026-05-04 18:59 46.81938 28.55617 13914 ft 372 kts 259°
2026-05-04 18:59 46.81313 28.51939 14547 ft 375 kts 259°
2026-05-04 18:59 46.80679 28.48225 15180 ft 378 kts 259°
2026-05-04 18:59 46.80041 28.44485 15820 ft 381 kts 259°
2026-05-04 19:00 46.79398 28.40716 16454 ft 385 kts 258°
2026-05-04 19:00 46.78747 28.36911 17083 ft 387 kts 258°
2026-05-04 19:00 46.78094 28.33090 17714 ft 390 kts 258°
2026-05-04 19:00 46.77434 28.29231 18340 ft 393 kts 258°
2026-05-04 19:01 46.76764 28.25341 18880 ft 396 kts 258°
2026-05-04 19:01 46.76087 28.21435 19429 ft 398 kts 258°
2026-05-04 19:01 46.75405 28.17512 19975 ft 400 kts 258°
2026-05-04 19:01 46.74718 28.13569 20519 ft 403 kts 258°
2026-05-04 19:02 46.74027 28.09593 21057 ft 405 kts 258°
2026-05-04 19:02 46.73331 28.05603 21579 ft 407 kts 258°
2026-05-04 19:02 46.72631 28.01600 22104 ft 409 kts 257°
2026-05-04 19:02 46.71923 27.97567 22613 ft 412 kts 257°
2026-05-04 19:03 46.71211 27.93511 23125 ft 414 kts 257°
2026-05-04 19:03 46.70495 27.89438 23623 ft 416 kts 257°
2026-05-04 19:03 46.69769 27.85327 24033 ft 418 kts 257°
2026-05-04 19:03 46.69041 27.81221 24450 ft 419 kts 257°
2026-05-04 19:04 46.68311 27.77102 24843 ft 422 kts 257°
2026-05-04 19:04 46.67575 27.72964 25250 ft 423 kts 257°
2026-05-04 19:04 46.66834 27.68804 25665 ft 425 kts 257°
2026-05-04 19:04 46.66092 27.64639 26056 ft 426 kts 257°
2026-05-04 19:05 46.65346 27.60463 26456 ft 428 kts 257°
2026-05-04 19:05 46.64593 27.56266 26845 ft 429 kts 257°
2026-05-04 19:05 46.63836 27.52060 27229 ft 431 kts 257°
2026-05-04 19:05 46.63074 27.47836 27607 ft 432 kts 257°
2026-05-04 19:06 46.62310 27.43604 28003 ft 434 kts 257°
2026-05-04 19:06 46.61541 27.39351 28381 ft 435 kts 257°
2026-05-04 19:06 46.60768 27.35085 28741 ft 437 kts 256°
2026-05-04 19:06 46.59987 27.30809 29148 ft 437 kts 256°
2026-05-04 19:07 46.59212 27.26550 29689 ft 434 kts 256°
2026-05-04 19:07 46.58436 27.22290 29912 ft 439 kts 257°
2026-05-04 19:07 46.57648 27.17968 30135 ft 443 kts 257°
2026-05-04 19:07 46.56857 27.13634 30390 ft 446 kts 257°
2026-05-04 19:08 46.56058 27.09278 30655 ft 447 kts 256°
2026-05-04 19:08 46.55247 27.04903 30921 ft 449 kts 256°
2026-05-04 19:08 46.54433 27.00527 31191 ft 450 kts 256°
2026-05-04 19:08 46.53616 26.96139 31477 ft 450 kts 256°
2026-05-04 19:09 46.52791 26.91786 31854 ft 449 kts 253°
2026-05-04 19:09 46.51589 26.87581 32226 ft 449 kts 243°
2026-05-04 19:09 46.49891 26.83784 32593 ft 450 kts 232°
2026-05-04 19:09 46.47743 26.80488 33053 ft 448 kts 222°
2026-05-04 19:10 46.45246 26.77802 33451 ft 448 kts 212°
2026-05-04 19:10 46.42541 26.75568 33828 ft 447 kts 211°
2026-05-04 19:10 46.39836 26.73368 34173 ft 446 kts 211°
2026-05-04 19:10 46.37133 26.71177 34468 ft 445 kts 211°
2026-05-04 19:11 46.34429 26.68990 34718 ft 445 kts 211°
2026-05-04 19:11 46.31724 26.66803 34966 ft 446 kts 211°
2026-05-04 19:11 46.29018 26.64614 35230 ft 445 kts 211°
2026-05-04 19:11 46.26317 26.62431 35463 ft 445 kts 211°
2026-05-04 19:12 46.23611 26.60249 35696 ft 445 kts 210°
2026-05-04 19:12 46.18194 26.55886 36049 ft 446 kts 211°
2026-05-04 19:13 46.12798 26.51535 36083 ft 442 kts 211°
2026-05-04 19:13 46.07464 26.47248 36086 ft 442 kts 211°
2026-05-04 19:14 46.02102 26.42948 36097 ft 441 kts 211°
2026-05-04 19:14 45.96741 26.38657 36098 ft 441 kts 211°
2026-05-04 19:15 45.91367 26.34376 36109 ft 441 kts 210°
2026-05-04 19:15 45.85997 26.30116 36114 ft 441 kts 210°
2026-05-04 19:16 45.80639 26.25854 36117 ft 440 kts 211°
2026-05-04 19:16 45.75281 26.21597 36116 ft 440 kts 210°
2026-05-04 19:17 45.69917 26.17369 36111 ft 440 kts 210°
2026-05-04 19:17 45.64556 26.13142 36111 ft 440 kts 210°
2026-05-04 19:18 45.59195 26.08923 36111 ft 440 kts 210°
2026-05-04 19:18 45.53830 26.04719 36100 ft 440 kts 210°
2026-05-04 19:19 45.48462 26.00512 36105 ft 440 kts 210°
2026-05-04 19:19 45.43071 25.96285 36104 ft 440 kts 210°
2026-05-04 19:20 45.37720 25.92113 36098 ft 441 kts 211°
2026-05-04 19:20 45.32342 25.87927 36093 ft 441 kts 211°
2026-05-04 19:21 45.26958 25.83745 36090 ft 441 kts 210°
2026-05-04 19:21 45.21560 25.79574 36082 ft 441 kts 210°
2026-05-04 19:22 45.16168 25.75401 36091 ft 441 kts 210°
2026-05-04 19:22 45.10785 25.71237 36092 ft 441 kts 210°
2026-05-04 19:23 45.05399 25.67091 36089 ft 441 kts 210°
2026-05-04 19:23 45.00919 25.63654 36086 ft 440 kts 210°
2026-05-04 19:24 44.95501 25.59506 36081 ft 440 kts 210°
2026-05-04 19:24 44.90120 25.55389 36069 ft 440 kts 210°
2026-05-04 19:25 44.84744 25.51281 36058 ft 440 kts 210°
2026-05-04 19:25 44.79360 25.47180 36055 ft 440 kts 210°
2026-05-04 19:26 44.73974 25.43092 36054 ft 440 kts 210°
2026-05-04 19:26 44.68589 25.39006 36048 ft 440 kts 210°
2026-05-04 19:27 44.63193 25.34923 36044 ft 441 kts 210°
2026-05-04 19:27 44.57794 25.30839 36046 ft 441 kts 210°
2026-05-04 19:28 44.52396 25.26756 36050 ft 441 kts 210°
2026-05-04 19:28 44.46993 25.22691 36050 ft 441 kts 210°
2026-05-04 19:29 44.41577 25.18639 36057 ft 441 kts 210°
2026-05-04 19:29 44.36166 25.14590 36056 ft 441 kts 210°
2026-05-04 19:30 44.30761 25.10543 36050 ft 441 kts 210°
2026-05-04 19:30 44.25340 25.06491 35765 ft 444 kts 210°
2026-05-04 19:30 44.22623 25.04469 35256 ft 441 kts 210°
2026-05-04 19:31 44.19928 25.02468 34777 ft 437 kts 210°
2026-05-04 19:31 44.17259 25.00490 34298 ft 433 kts 210°
2026-05-04 19:31 44.14611 24.98528 33777 ft 429 kts 210°
2026-05-04 19:31 44.11981 24.96579 33230 ft 426 kts 210°
2026-05-04 19:32 44.09377 24.94650 32692 ft 422 kts 210°
2026-05-04 19:32 44.06797 24.92737 32169 ft 419 kts 210°
2026-05-04 19:32 44.04234 24.90838 31653 ft 416 kts 210°
2026-05-04 19:32 44.01689 24.88954 31153 ft 413 kts 210°
2026-05-04 19:33 43.99168 24.87089 30652 ft 409 kts 210°
2026-05-04 19:33 43.96661 24.85238 30156 ft 406 kts 210°
2026-05-04 19:33 43.94175 24.83407 29610 ft 403 kts 210°
2026-05-04 19:33 43.91708 24.81595 29179 ft 397 kts 210°
2026-05-04 19:34 43.89284 24.79819 28824 ft 390 kts 210°
2026-05-04 19:34 43.86896 24.78066 28475 ft 387 kts 210°
2026-05-04 19:34 43.84524 24.76320 28122 ft 385 kts 210°
2026-05-04 19:34 43.82164 24.74583 27773 ft 383 kts 210°
2026-05-04 19:35 43.79811 24.72857 27432 ft 382 kts 210°
2026-05-04 19:35 43.77458 24.71138 27091 ft 382 kts 209°
2026-05-04 19:35 43.75113 24.69429 26758 ft 381 kts 210°
2026-05-04 19:35 43.72774 24.67724 26434 ft 380 kts 210°
2026-05-04 19:36 43.70439 24.66021 26108 ft 379 kts 210°
2026-05-04 19:36 43.68115 24.64327 25783 ft 378 kts 210°
2026-05-04 19:36 43.65796 24.62635 25470 ft 377 kts 210°
2026-05-04 19:36 43.63480 24.60945 25153 ft 376 kts 210°
2026-05-04 19:37 43.61168 24.59263 24838 ft 375 kts 210°
2026-05-04 19:37 43.58863 24.57589 24539 ft 374 kts 210°
2026-05-04 19:37 43.56563 24.55922 24232 ft 373 kts 210°
2026-05-04 19:37 43.54237 24.54239 23929 ft 372 kts 210°
2026-05-04 19:38 43.51949 24.52581 23626 ft 371 kts 210°
2026-05-04 19:38 43.49666 24.50928 23271 ft 370 kts 210°
2026-05-04 19:38 43.47387 24.49279 22915 ft 369 kts 209°
2026-05-04 19:38 43.45120 24.47640 22575 ft 368 kts 209°
2026-05-04 19:39 43.42857 24.46003 22223 ft 366 kts 209°
2026-05-04 19:39 43.40607 24.44376 21883 ft 365 kts 209°
2026-05-04 19:39 43.38361 24.42753 21539 ft 364 kts 208°
2026-05-04 19:39 43.36153 24.41163 21223 ft 362 kts 208°
2026-05-04 19:40 43.33894 24.39541 20889 ft 361 kts 208°
2026-05-04 19:40 43.31676 24.37947 20564 ft 360 kts 208°
2026-05-04 19:40 43.29462 24.36356 20238 ft 358 kts 208°
2026-05-04 19:40 43.27261 24.34775 19923 ft 356 kts 208°
2026-05-04 19:41 43.25071 24.33198 19610 ft 355 kts 208°
2026-05-04 19:41 43.22889 24.31630 19298 ft 353 kts 207°
2026-05-04 19:41 43.20715 24.30075 18998 ft 352 kts 207°
2026-05-04 19:41 43.18548 24.28529 18686 ft 351 kts 207°
2026-05-04 19:42 43.16390 24.26987 18375 ft 349 kts 207°
2026-05-04 19:42 43.14246 24.25448 18117 ft 348 kts 207°
2026-05-04 19:42 43.12100 24.23903 18117 ft 348 kts 208°
2026-05-04 19:42 43.10161 24.21961 18010 ft 345 kts 226°
2026-05-04 19:43 43.08577 24.19499 17579 ft 344 kts 231°
2026-05-04 19:43 43.07053 24.16977 17168 ft 343 kts 231°
2026-05-04 19:43 43.05541 24.14457 16782 ft 342 kts 231°
2026-05-04 19:43 43.04035 24.11946 16403 ft 341 kts 231°
2026-05-04 19:44 43.02532 24.09437 16031 ft 341 kts 231°
2026-05-04 19:44 43.01033 24.06932 15675 ft 340 kts 231°
2026-05-04 19:44 42.99544 24.04439 15317 ft 339 kts 231°
2026-05-04 19:44 42.98055 24.01946 14957 ft 338 kts 231°
2026-05-04 19:45 42.96578 23.99462 14655 ft 336 kts 231°
2026-05-04 19:45 42.95110 23.96990 14329 ft 335 kts 231°
2026-05-04 19:45 42.93646 23.94524 13989 ft 334 kts 231°
2026-05-04 19:45 42.92189 23.92069 13634 ft 333 kts 231°
2026-05-04 19:46 42.90743 23.89642 13462 ft 325 kts 231°
2026-05-04 19:46 42.89335 23.87282 13337 ft 317 kts 231°
2026-05-04 19:46 42.87956 23.84978 13051 ft 309 kts 231°
2026-05-04 19:46 42.86607 23.82737 12729 ft 303 kts 231°
2026-05-04 19:47 42.85185 23.80633 12418 ft 301 kts 216°
2026-05-04 19:47 42.83340 23.79412 12108 ft 291 kts 191°
2026-05-04 19:47 42.81393 23.78905 11800 ft 280 kts 186°
2026-05-04 19:47 42.79466 23.78508 11491 ft 273 kts 185°
2026-05-04 19:48 42.77593 23.78137 11201 ft 271 kts 184°
2026-05-04 19:48 42.75740 23.78166 10894 ft 262 kts 159°
2026-05-04 19:48 42.74189 23.79282 10602 ft 247 kts 130°
2026-05-04 19:48 42.73213 23.81117 10321 ft 236 kts 105°
2026-05-04 19:49 42.72897 23.83240 10042 ft 225 kts 82°
2026-05-04 19:49 42.73091 23.85337 9676 ft 224 kts 76°
2026-05-04 19:49 42.73323 23.87449 9308 ft 227 kts 77°
2026-05-04 19:49 42.73554 23.89583 8941 ft 230 kts 77°
2026-05-04 19:50 42.73685 23.91754 8574 ft 235 kts 91°
2026-05-04 19:50 42.73136 23.93883 8196 ft 247 kts 120°
2026-05-04 19:50 42.71817 23.95378 8012 ft 251 kts 154°
2026-05-04 19:50 42.70100 23.95763 8019 ft 255 kts 186°
2026-05-04 19:51 42.68445 23.94897 7826 ft 260 kts 219°
2026-05-04 19:51 42.67247 23.93104 7530 ft 255 kts 244°
2026-05-04 19:51 42.66674 23.90876 7233 ft 248 kts 267°
2026-05-04 19:51 42.66708 23.88572 6948 ft 243 kts 278°
2026-05-04 19:52 42.66862 23.86282 6657 ft 244 kts 278°
2026-05-04 19:52 42.67013 23.83982 6353 ft 243 kts 278°
2026-05-04 19:52 42.67159 23.81699 6073 ft 241 kts 278°
2026-05-04 19:52 42.67301 23.79472 6004 ft 231 kts 277°
2026-05-04 19:53 42.67434 23.77369 6012 ft 216 kts 278°
2026-05-04 19:53 42.67561 23.75368 6016 ft 210 kts 278°
2026-05-04 19:53 42.67686 23.73406 5950 ft 203 kts 278°
2026-05-04 19:53 42.67803 23.71540 5710 ft 193 kts 278°
2026-05-04 19:54 42.67914 23.69773 5461 ft 182 kts 277°
2026-05-04 19:54 42.68020 23.68101 5233 ft 173 kts 278°
2026-05-04 19:54 42.68119 23.66515 5022 ft 164 kts 277°
2026-05-04 19:54 42.68214 23.65009 4812 ft 157 kts 277°
2026-05-04 19:55 42.68306 23.63541 4594 ft 155 kts 277°
2026-05-04 19:55 42.68396 23.62092 4385 ft 153 kts 276°
2026-05-04 19:55 42.68487 23.60652 4176 ft 152 kts 276°
2026-05-04 19:55 42.68594 23.59226 3952 ft 151 kts 277°
2026-05-04 19:56 42.68714 23.57808 3736 ft 151 kts 276°
2026-05-04 19:56 42.68832 23.56401 3559 ft 149 kts 274°
2026-05-04 19:56 42.68917 23.54978 3382 ft 152 kts 270°
2026-05-04 19:56 42.68952 23.53533 3208 ft 153 kts 270°
2026-05-04 19:57 42.69001 23.52111 3022 ft 153 kts 273°
2026-05-04 19:57 42.69118 23.50660 2841 ft 152 kts 276°
2026-05-04 19:57 42.69199 23.49718 2710 ft 152 kts 273°
2026-05-04 19:57 42.69296 23.47812 2367 ft 151 kts 270°
2026-05-04 19:58 42.69321 23.46869 2205 ft 149 kts 273°
2026-05-04 19:58 42.69431 23.45400 2007 ft 151 kts 274°
2026-05-04 19:58 42.69517 23.43984 1811 ft 149 kts 273°
2026-05-04 19:58 42.69587 23.42638 1750 ft 122 kts 273°
2026-05-04 19:59 42.69636 23.41900 1742 ft 43 kts 275°
2026-05-04 19:59 42.69591 23.41583 1742 ft 16 kts 246°
2026-05-04 19:59 42.69556 23.41488 1741 ft 12 kts 243°
2026-05-04 19:59 42.69531 23.41425 1740 ft 8 kts 244°
2026-05-04 20:00 42.69503 23.41347 1748 ft 9 kts 245°
2026-05-04 20:00 42.69477 23.41254 1741 ft 12 kts 230°
2026-05-04 20:00 42.69391 23.41208 1748 ft 13 kts 190°
2026-05-04 20:00 42.69313 23.41237 1745 ft 14 kts 123°
2026-05-04 20:01 42.69295 23.41384 1745 ft 16 kts 93°
2026-05-04 20:01 42.69261 23.41507 1745 ft 16 kts 140°
2026-05-04 20:01 42.69157 23.41522 1748 ft 18 kts 228°
2026-05-04 20:01 42.69129 23.41426 1740 ft 0 kts 246°